Wind_Speed
56 56 57 58 59 61 63 64 66 68 70 72 74 76 79 80 82 84 85 88 90 92 95 97 100 102 104 106 108 109 111 112 114 115 117 119 121 122 123 124 125 126 127 128 130 131 132 133 134 135 135 136 136 136 136 136 137 137 138 138 139 139 140 141 141 140 139 138 137 135 134 132 131 131 132 134 137 139 140 140 139 139 138 137 137
57 54 53 54 55 57 59 61 63 65 67 69 71 73 76 78 79 81 83 85 87 90 92 94 96 98 100 102 103 105 107 108 110 111 112 114 116 118 120 121 122 123 124 125 126 127 129 130 131 133 134 135 135 136 137 137 137 137 137 138 139 139 139 140 140 141 141 140 139 138 137 136 134 132 131 132 133 136 138 140 140 140 140 139 139
59 57 55 53 53 53 54 57 59 61 63 66 68 70 72 74 77 78 80 82 85 87 89 91 92 94 96 98 99 101 102 104 106 107 108 110 111 113 115 117 118 119 121 122 123 124 125 127 128 130 131 133 134 135 136 136 137 137 137 137 138 138 139 140 140 139 140 141 141 140 140 139 137 136 134 133 132 133 134 136 139 140 141 141 141
59 58 57 56 54 53 53 53 55 57 59 62 64 66 68 71 73 75 76 79 81 84 86 88 90 92 94 95 96 98 99 101 102 103 105 106 108 108 110 111 113 115 117 119 120 121 122 124 125 127 128 130 132 133 134 135 136 137 138 138 138 138 139 139 140 140 139 139 140 140 141 141 140 139 137 136 135 134 133 133 135 137 138 140 141
56 57 57 56 55 55 54 54 54 54 56 58 60 62 64 66 68 70 72 74 77 80 82 85 87 89 91 92 94 95 96 98 99 100 102 103 104 105 106 107 109 111 113 115 117 118 120 121 123 124 125 127 129 130 132 133 134 135 136 137 138 138 138 139 139 140 140 139 139 139 140 141 141 141 140 139 138 137 135 134 133 134 135 137 138
55 54 54 54 54 55 55 55 55 55 55 56 57 59 60 62 64 67 69 71 73 75 78 80 83 85 87 89 90 92 93 95 96 98 99 100 101 102 103 104 105 107 109 112 114 116 118 119 121 122 123 125 126 127 129 130 132 133 134 135 136 137 138 138 139 139 140 140 140 139 139 140 140 141 141 141 140 139 138 137 135 134 135 135 135
55 54 53 52 52 52 53 54 54 54 55 55 55 56 57 58 60 63 65 67 69 71 73 75 77 80 82 84 86 88 89 90 92 94 95 97 98 100 101 102 103 104 106 108 111 113 115 117 118 120 122 123 124 125 126 127 129 130 131 133 134 135 136 137 138 139 139 140 140 140 140 139 140 140 141 141 141 141 141 140 139 138 137 136 135
55 54 54 52 51 50 50 51 51 51 52 53 53 54 54 55 56 57 60 62 64 67 69 71 73 74 77 79 82 83 84 86 88 90 91 93 95 96 98 98 99 100 102 105 107 110 112 114 115 117 118 120 122 123 123 124 125 127 128 130 131 132 133 134 136 137 138 139 140 140 140 140 140 140 140 140 140 141 141 141 141 141 141 139 137
55 54 54 53 51 49 48 47 48 49 49 50 51 52 52 52 52 53 54 56 58 61 64 66 68 70 72 74 77 79 80 81 83 85 88 90 92 93 94 94 95 97 98 100 102 105 107 109 111 112 114 115 117 119 120 121 123 124 126 127 128 129 130 131 132 134 136 137 139 140 140 140 140 141 141 141 140 140 140 141 142 143 143 142 141
54 54 54 53 51 49 46 45 45 45 46 47 49 50 51 51 51 51 51 51 53 55 58 60 63 65 67 70 72 74 76 77 79 81 83 85 87 89 91 92 93 95 95 96 97 99 100 102 104 106 108 110 112 114 115 117 119 121 123 124 126 127 128 129 130 131 133 134 136 138 139 140 141 141 141 141 141 141 140 140 142 143 143 143 143
54 53 52 51 50 49 47 44 43 42 43 44 46 47 48 49 50 50 50 50 50 51 53 55 58 60 63 65 67 69 70 72 74 76 79 81 82 84 87 89 91 93 94 93 94 95 95 97 99 100 102 104 106 107 109 112 115 118 120 122 123 125 126 127 128 129 131 132 134 136 138 139 140 141 141 142 142 142 141 141 141 142 143 143 144
55 52 50 49 48 48 47 46 44 42 41 41 42 44 45 46 47 49 49 49 49 49 50 51 53 55 58 61 63 65 66 67 69 71 74 76 78 80 83 85 87 89 90 90 91 93 93 94 96 96 97 98 99 101 103 107 111 114 117 119 121 123 125 126 127 128 130 131 133 135 136 138 139 140 141 142 142 143 143 142 142 143 143 142 143
59 55 53 51 50 49 48 48 47 45 43 42 42 42 42 43 43 45 47 48 48 48 48 49 50 51 53 56 59 61 62 63 65 66 68 71 74 76 78 80 82 84 86 86 88 90 90 91 93 93 93 94 95 96 99 103 107 110 113 116 118 121 123 125 126 127 129 130 132 134 135 136 137 139 140 141 142 143 143 144 144 144 144 143 144
64 60 57 55 53 51 50 49 48 47 46 44 43 43 43 43 42 42 43 45 46 47 47 47 48 49 50 52 54 57 59 60 62 63 64 66 69 71 73 75 77 80 82 84 85 87 87 87 88 88 89 90 91 93 97 100 103 106 109 112 116 119 121 123 125 126 128 129 130 132 134 135 136 138 139 140 141 142 143 144 145 145 145 145 145
67 63 60 57 54 52 51 50 49 48 47 46 44 43 42 42 42 42 42 42 43 45 46 47 47 48 48 50 51 53 55 57 59 60 62 63 65 67 69 71 73 75 77 80 82 84 83 82 82 82 83 85 87 91 95 99 102 104 107 109 112 115 118 120 122 124 126 127 129 131 132 134 135 137 138 139 141 142 143 144 145 146 146 147 146
69 65 62 58 55 52 50 49 48 48 47 46 45 43 41 40 39 40 40 41 41 42 44 45 46 47 47 48 49 50 52 53 55 57 58 60 62 64 66 68 70 71 73 75 78 80 80 78 77 76 77 80 84 88 93 97 100 102 104 106 108 110 113 115 118 120 123 125 127 128 130 131 133 135 137 139 140 141 142 144 145 146 147 147 148
72 68 64 61 58 55 52 49 48 47 46 46 45 44 42 40 39 38 38 38 39 39 40 42 44 45 46 46 47 48 49 51 52 54 55 56 59 61 63 65 67 68 70 72 74 75 75 75 75 73 72 75 80 85 90 94 96 99 101 102 104 105 108 110 113 115 118 121 123 125 127 128 130 133 135 137 139 140 141 143 144 146 147 148 148
75 71 67 63 60 57 54 51 49 47 46 45 45 44 44 42 40 38 36 36 36 36 37 38 40 42 43 44 45 46 47 48 50 51 52 53 55 57 59 62 63 65 67 69 70 71 71 72 72 71 70 72 76 80 85 89 91 93 96 97 99 101 103 105 108 111 114 117 120 122 123 125 127 130 133 135 137 139 140 141 143 144 146 148 148
78 74 71 66 62 58 55 53 51 48 46 45 44 44 43 42 41 39 37 36 35 35 34 35 36 39 40 42 43 44 45 46 47 48 50 51 52 53 55 58 60 61 63 65 66 68 68 69 69 68 68 69 71 74 78 82 85 87 89 92 94 96 99 101 105 108 111 114 117 119 121 123 124 127 129 131 133 135 137 139 140 142 144 146 148
80 77 73 69 66 62 58 55 52 49 46 45 43 43 42 41 40 39 38 36 34 34 33 33 33 35 37 38 40 42 43 44 45 46 47 47 48 50 52 54 56 57 59 60 62 63 64 65 66 66 66 67 68 70 73 75 78 81 84 87 90 92 95 98 101 104 107 110 113 116 118 120 122 125 126 128 130 131 133 135 137 139 141 143 145
82 78 74 71 68 65 61 58 54 51 47 45 42 41 41 40 39 38 37 36 34 33 32 32 31 32 33 35 37 39 40 42 43 44 45 45 45 47 49 51 53 54 55 57 58 59 59 60 62 63 64 65 67 69 71 72 75 77 80 84 87 90 92 95 97 100 102 105 108 110 113 116 119 121 123 125 127 128 130 131 133 135 137 139 140
84 80 77 74 71 68 64 61 58 55 51 48 44 41 40 40 39 38 37 36 35 33 32 30 30 29 30 31 33 34 37 38 40 42 43 43 44 44 45 47 49 50 52 53 55 56 56 56 58 59 61 64 66 68 69 71 73 75 78 80 83 87 89 92 94 95 97 100 102 105 108 111 114 116 119 121 124 125 127 128 129 131 133 135 136
88 84 81 77 74 71 68 65 62 59 55 51 48 45 42 40 40 39 37 36 34 33 32 31 29 28 28 29 29 31 32 34 36 38 40 41 42 43 43 44 45 46 48 50 51 53 54 54 55 57 59 61 63 65 68 69 71 73 74 77 79 82 84 86 87 89 92 94 96 99 102 105 108 111 113 116 119 121 123 124 126 127 128 130 132
94 89 85 81 77 74 72 69 66 62 58 54 51 48 46 43 40 39 38 37 35 32 31 30 29 28 27 27 27 28 29 31 32 34 36 37 39 40 41 42 43 43 44 46 48 50 51 53 54 55 57 58 60 62 65 67 68 70 72 73 75 76 78 79 82 84 87 90 92 95 98 100 103 105 108 111 114 116 119 120 122 123 125 126 128
99 93 88 84 81 77 74 72 69 65 62 58 54 51 48 46 43 40 38 37 36 35 32 30 28 27 27 26 26 26 26 27 29 30 31 32 34 36 38 39 41 42 42 43 45 47 49 51 53 54 56 57 59 60 62 64 66 68 69 71 72 73 75 77 79 82 85 87 89 92 95 97 98 100 103 107 110 112 114 116 118 119 121 122 124
103 97 92 88 85 81 77 74 70 67 64 61 56 52 50 47 44 41 39 37 35 35 34 32 30 28 26 25 25 24 25 25 26 27 28 29 30 32 34 35 37 38 39 41 42 44 46 49 51 52 54 56 57 59 61 63 64 66 66 67 69 71 74 76 78 80 83 85 87 90 92 93 95 97 100 103 105 107 109 111 113 115 117 119 120
107 101 97 92 88 84 81 77 73 69 66 63 59 55 51 48 45 42 39 37 35 33 33 32 32 31 29 27 25 24 23 24 24 25 26 26 27 28 30 32 34 35 37 38 39 41 43 46 48 50 51 53 54 56 58 59 61 62 63 65 68 70 72 73 76 78 80 82 84 86 88 89 91 93 95 98 99 101 103 105 107 110 112 115 116
112 106 100 95 91 87 83 80 76 72 68 64 61 57 53 49 46 43 40 38 36 34 33 31 31 30 30 29 28 26 24 23 23 23 24 24 25 26 27 29 31 33 35 36 37 39 40 42 44 45 46 48 49 51 53 55 57 59 62 65 67 69 70 72 74 76 78 80 82 83 84 85 87 88 90 92 93 95 97 99 101 103 106 108 111
116 110 104 98 93 88 84 81 78 75 71 67 64 60 55 51 48 44 42 40 38 36 34 32 31 29 28 27 27 26 25 24 22 22 22 23 23 23 24 27 29 31 33 34 36 36 37 38 39 40 40 42 44 47 49 52 55 58 60 62 64 66 68 70 72 75 77 79 80 81 82 83 84 85 87 88 89 90 92 94 96 98 100 102 104
118 114 108 102 96 91 87 83 80 77 74 71 67 64 60 55 51 47 44 42 40 38 36 34 33 32 30 28 26 25 24 24 23 22 21 22 22 22 22 23 26 29 31 33 34 34 34 35 35 35 36 38 41 44 47 50 52 55 56 58 59 61 64 67 70 72 73 75 76 77 78 79 80 82 84 86 87 88 90 91 93 94 96 97 99
120 117 113 107 100 95 90 86 82 79 76 73 70 67 64 60 56 52 48 45 43 40 38 37 35 34 33 31 29 27 25 23 22 22 21 21 21 22 22 21 22 24 27 29 31 31 31 32 32 33 33 35 38 41 44 46 48 50 52 53 55 57 60 64 66 67 68 69 70 71 73 74 76 78 81 82 84 86 87 89 91 92 93 94 95
124 120 116 111 105 99 94 89 85 81 78 75 72 69 67 64 61 57 53 49 46 43 40 38 37 35 35 34 32 30 28 26 24 22 22 21 21 21 22 22 21 21 22 24 26 27 28 29 30 31 32 34 36 38 41 42 44 46 47 49 51 55 58 60 61 62 63 64 65 66 68 69 71 74 76 78 80 82 84 86 88 90 91 92 92
127 123 119 115 110 104 97 92 87 83 80 77 74 71 69 66 64 61 57 53 50 47 44 41 39 37 36 35 35 33 31 29 27 25 23 22 22 21 21 22 21 21 20 21 22 23 25 27 28 29 30 32 34 36 38 39 40 42 44 46 50 53 55 56 57 59 61 62 62 63 64 66 68 69 71 73 75 77 79 81 83 86 87 89 90
128 125 122 118 114 109 103 96 90 86 82 78 76 73 70 68 66 63 61 57 54 51 48 45 42 40 37 36 35 35 34 32 30 28 26 25 24 23 22 22 21 21 21 20 21 21 22 24 25 27 28 30 32 33 35 37 38 40 43 46 49 51 53 54 55 57 59 60 60 61 62 64 65 66 67 69 70 72 74 76 78 80 82 85 87
128 126 124 121 117 113 108 101 95 89 84 80 77 74 72 69 66 64 62 60 57 54 51 49 46 42 40 37 36 35 35 34 33 31 29 27 25 24 23 23 22 22 21 21 21 21 21 22 23 24 26 28 29 31 33 34 37 39 42 45 48 49 51 52 53 54 56 57 57 58 60 61 62 63 65 66 67 68 70 72 74 75 77 80 82
128 126 125 123 119 116 112 106 100 93 87 83 79 76 73 70 67 65 63 61 59 56 53 51 48 45 42 39 37 36 34 34 33 33 31 29 27 25 24 23 22 22 22 21 21 21 21 22 22 23 24 25 27 28 29 31 33 35 38 40 42 44 46 47 48 50 52 53 54 55 57 58 59 61 62 63 64 65 66 68 70 72 74 76 78
131 128 126 125 122 119 115 110 104 97 91 86 81 78 75 72 69 66 63 61 59 57 54 52 50 47 45 42 39 37 35 34 33 32 32 30 29 27 25 24 23 22 22 21 21 21 21 21 22 22 23 24 25 27 27 28 29 31 32 35 37 39 41 42 44 46 48 49 50 52 54 55 56 57 59 60 60 61 63 65 67 69 71 73 75
133 131 128 127 125 122 118 114 109 102 95 89 84 80 77 74 70 67 64 61 59 57 55 53 50 49 47 45 43 41 38 37 35 33 32 31 30 28 27 25 23 22 22 22 22 21 21 21 22 22 23 24 25 26 27 28 29 30 31 33 34 36 38 40 42 43 45 47 48 50 52 52 53 54 54 55 56 57 59 61 63 65 67 70 72
133 132 130 128 127 126 123 118 114 108 101 94 88 83 78 75 72 69 66 63 60 58 55 53 51 49 48 47 45 44 42 40 37 35 33 31 29 28 27 26 25 23 22 21 21 22 22 22 22 23 23 24 25 26 27 28 29 30 31 32 33 35 36 38 39 40 41 43 45 48 49 50 51 50 51 52 53 54 56 58 60 61 63 66 68
133 133 131 130 128 128 126 123 119 114 108 100 92 86 81 77 74 71 68 66 63 59 56 54 52 50 48 47 45 44 43 41 39 37 35 33 30 28 26 25 25 24 23 22 21 21 21 22 22 23 23 24 25 26 27 28 29 30 31 32 33 34 35 36 37 37 38 39 42 45 46 48 48 48 48 49 50 51 54 56 56 57 60 63 64
133 133 132 131 130 129 128 126 122 118 113 106 99 91 84 79 76 73 70 68 65 62 59 56 53 51 50 47 45 44 43 42 40 38 36 35 32 30 28 26 24 23 23 23 22 21 21 21 22 22 23 24 25 26 27 28 29 30 30 31 33 34 35 35 36 36 36 37 39 42 44 45 46 46 47 48 49 50 51 53 53 55 58 58 59
133 133 132 132 131 130 129 128 126 122 117 112 105 97 89 83 78 74 72 69 67 65 62 59 56 53 50 49 46 45 43 42 40 39 37 36 34 32 30 28 26 24 23 22 21 21 21 21 21 22 23 24 24 25 26 27 28 29 30 31 32 33 34 35 35 35 35 36 37 39 41 42 43 44 45 46 47 48 49 50 52 54 54 54 55
133 133 132 132 131 131 130 130 128 126 122 116 111 104 96 88 81 76 73 70 68 66 64 62 59 56 52 50 47 45 43 42 40 39 38 36 35 34 33 31 29 27 25 23 22 21 21 20 20 21 22 23 24 25 25 27 28 29 29 30 31 32 33 34 34 34 34 35 36 38 39 40 41 42 43 44 46 47 48 50 51 51 51 51 52
133 132 132 132 131 131 130 129 129 128 125 121 115 109 102 94 86 79 74 71 68 66 63 62 60 58 56 53 49 47 44 42 40 39 38 37 35 33 32 32 31 30 28 26 24 23 21 20 20 20 21 21 23 24 24 26 27 28 29 29 30 32 32 33 34 34 34 34 35 36 37 39 40 41 42 43 44 46 47 49 49 49 48 49 50
134 133 132 132 131 130 130 129 128 128 127 124 120 114 107 100 92 84 77 72 69 66 64 61 59 58 56 55 52 49 47 44 41 39 37 37 36 34 32 31 30 29 29 28 26 25 24 23 21 20 20 20 21 22 23 24 25 27 28 28 29 30 31 32 33 33 33 34 34 35 36 37 38 40 41 42 43 44 46 47 47 47 47 48 49
133 133 133 132 132 131 130 130 129 128 127 126 123 118 111 104 97 89 82 76 71 67 64 62 59 57 55 54 52 51 49 47 44 42 39 37 35 34 33 32 31 30 29 28 28 27 25 24 23 22 21 21 20 20 21 22 23 25 26 27 27 28 29 30 31 32 32 33 33 34 35 36 37 38 39 41 42 43 44 45 46 46 47 48 49
133 133 133 133 133 133 132 131 130 128 127 127 125 121 115 108 101 94 86 80 74 70 66 63 60 58 55 53 51 50 49 47 46 44 42 40 37 35 33 31 30 30 29 29 28 28 27 26 24 23 22 22 21 21 20 20 21 22 23 25 26 26 27 28 29 30 30 31 32 33 34 34 35 36 38 39 41 42 43 43 44 45 46 47 48
132 132 133 132 133 133 133 132 131 130 129 128 127 124 119 112 105 98 90 83 78 73 69 66 63 60 57 54 52 50 48 47 45 44 42 40 38 37 36 34 31 28 28 27 27 27 27 26 25 24 23 22 22 21 21 20 20 20 21 22 23 24 25 26 27 28 29 30 30 31 32 33 34 35 36 38 39 40 42 43 43 44 46 47 47
131 131 132 132 132 132 132 132 132 131 130 129 127 126 122 116 109 102 95 87 80 75 71 68 65 62 59 57 54 51 49 47 46 45 43 41 37 35 34 34 34 31 29 27 26 26 26 26 25 25 24 23 22 22 21 20 20 20 20 20 21 22 23 25 25 27 28 29 29 30 30 31 31 32 34 36 37 39 40 41 42 44 45 46 46
130 131 131 131 131 131 132 132 132 131 131 129 128 126 124 119 113 106 99 91 84 77 72 68 66 63 61 59 56 54 51 48 46 44 44 44 42 38 34 32 32 33 32 29 27 25 25 25 25 25 24 24 23 22 22 21 20 20 20 21 21 21 22 23 23 24 26 27 28 28 29 29 29 30 31 32 34 36 38 40 41 42 44 45 46
129 130 131 131 131 131 131 132 131 131 130 129 128 126 125 122 116 109 102 95 88 81 75 70 66 64 61 59 57 56 53 50 47 45 42 41 42 42 40 36 32 31 31 31 30 27 26 25 24 24 24 24 23 23 22 21 20 20 21 21 21 22 22 22 22 23 23 24 26 26 27 28 28 28 29 29 31 33 35 37 39 40 42 43 44
Wind_Direction
301 296 293 289 286 283 280 277 275 272 269 267 266 264 263 262 261 259 258 258 257 256 255 255 255 254 254 254 253 253 252 252 251 251 250 250 250 250 249 249 249 248 248 247 247 247 246 246 246 245 245 245 245 245 244 244 244 244 244 244 243 243 242 242 241 241 241 241 241 241 240 240 240 240 240 240 241 241 242 242 242 242 242 241 240
306 301 296 292 288 285 283 280 277 275 272 270 268 266 264 263 262 260 259 258 257 256 256 255 255 254 254 254 254 253 253 252 252 251 250 250 249 249 249 249 249 249 248 248 247 247 247 246 246 245 245 245 244 244 244 244 244 244 244 243 243 243 243 243 242 241 241 241 241 241 241 240 240 240 240 240 240 240 241 241 241 241 241 242 241
310 307 303 299 294 290 286 282 280 277 275 273 271 269 267 266 264 262 261 259 258 257 256 256 255 255 255 255 254 254 254 253 253 252 252 251 250 249 248 248 248 248 248 248 247 247 247 246 246 246 245 245 244 244 244 244 244 244 244 243 243 243 243 243 243 242 242 241 241 241 241 241 241 240 240 240 240 240 240 241 241 241 241 241 241
313 311 308 305 301 297 292 287 284 280 278 276 274 272 270 269 267 265 264 262 261 259 258 257 256 255 255 254 254 254 254 254 253 253 253 252 252 251 250 249 249 248 248 248 248 247 247 246 246 246 245 245 244 244 244 243 243 243 243 243 243 243 243 243 243 243 242 242 241 241 241 241 241 241 241 240 240 240 240 241 241 242 241 241 241
316 313 311 308 305 302 298 294 290 286 282 279 276 274 272 271 269 268 266 265 263 262 260 259 257 256 255 254 253 253 252 252 253 253 252 252 252 252 251 251 250 249 249 248 248 248 247 246 246 245 245 245 244 244 244 243 243 243 243 243 243 243 243 243 243 243 243 242 242 241 241 241 241 241 241 241 241 241 241 241 241 242 242 242 241
320 317 314 311 308 305 302 299 295 291 287 283 280 277 274 272 270 269 267 266 264 263 261 260 259 258 257 256 254 253 252 251 251 251 251 251 251 251 251 250 250 249 248 248 248 247 247 246 246 245 245 244 244 244 243 243 243 242 242 242 242 242 242 243 243 243 243 243 242 242 241 241 241 241 241 241 242 242 241 241 241 241 242 242 242
325 321 318 315 311 308 304 301 298 295 292 288 285 281 278 275 272 270 268 267 266 265 263 262 261 260 259 258 257 256 254 253 252 251 251 250 250 250 249 249 248 248 247 247 247 246 246 245 245 245 244 244 244 243 243 243 242 242 242 242 242 242 242 242 242 243 243 243 243 242 242 241 241 241 241 241 241 242 242 242 242 241 241 242 242
330 326 323 319 316 312 308 304 301 298 295 293 290 286 283 279 276 274 271 269 268 266 265 264 263 262 261 259 258 257 256 255 255 254 253 252 251 250 249 249 248 247 246 245 245 245 244 244 244 244 243 243 243 243 243 242 242 242 242 242 242 242 242 241 242 242 242 242 243 242 242 242 241 241 241 241 241 241 241 242 242 242 242 241 241
334 330 326 323 320 317 312 308 304 301 298 295 293 290 287 284 281 278 275 272 270 268 266 265 264 263 262 260 259 258 257 255 254 254 253 253 253 252 252 251 250 249 248 247 246 245 244 243 243 243 243 243 243 243 243 243 242 242 242 242 242 241 241 241 241 241 241 242 242 242 242 242 242 241 241 241 241 240 241 241 242 242 243 242 242
339 335 330 327 324 321 317 312 307 303 299 296 294 292 290 288 286 283 280 277 274 271 268 266 265 264 262 261 260 259 257 256 254 253 252 252 252 252 252 252 251 251 250 249 248 247 246 245 244 243 243 242 242 242 242 243 243 243 243 242 242 242 241 241 241 241 241 241 241 241 241 241 241 241 241 241 241 240 240 240 241 241 242 242 243
344 340 335 330 326 323 320 316 311 306 301 297 294 292 290 288 287 285 283 280 277 274 271 268 266 265 264 262 261 260 259 257 256 254 253 252 251 250 250 251 251 250 250 248 248 247 246 245 245 244 243 243 242 242 242 242 242 242 243 243 242 242 241 241 241 240 240 240 240 240 241 241 241 241 240 240 240 240 240 239 240 241 241 241 242
349 345 340 335 330 326 323 320 316 311 306 301 297 293 290 288 286 285 283 282 279 276 274 271 268 266 264 264 263 262 260 259 257 256 254 253 252 251 250 249 250 250 250 249 248 247 245 244 243 242 242 242 242 241 241 241 241 241 242 242 242 242 242 241 240 240 240 240 239 239 239 239 240 240 240 240 239 239 239 239 239 239 240 240 241
353 350 347 342 337 333 329 325 321 318 314 309 304 299 295 291 288 285 283 282 280 278 276 274 271 268 266 264 264 263 262 261 259 257 255 254 253 252 251 250 250 250 250 249 249 248 246 245 243 241 240 239 239 240 240 240 240 240 241 241 241 241 241 241 241 240 240 240 239 239 239 239 239 239 239 239 239 239 238 238 238 238 239 239 240
356 354 351 348 343 338 334 330 326 323 319 316 312 308 304 300 295 291 287 284 282 280 278 275 273 270 268 266 264 263 262 261 260 259 257 255 254 253 252 251 250 250 250 250 249 249 248 246 245 243 241 240 238 238 238 238 238 239 239 239 240 240 241 241 241 241 240 240 240 239 239 238 238 238 238 238 238 238 238 238 237 237 237 238 239
358 357 355 351 347 343 338 334 330 326 323 320 316 313 309 306 302 298 293 288 284 281 279 277 274 272 269 267 265 264 263 261 260 259 258 257 255 254 252 251 250 249 249 250 250 250 249 248 246 244 243 241 240 239 238 238 238 237 237 237 238 239 239 240 241 241 241 241 240 240 239 239 238 238 238 238 238 237 237 237 237 237 237 237 237
0 359 357 354 351 347 342 338 333 329 326 323 320 317 314 310 306 302 298 293 289 284 280 278 276 273 271 268 266 265 263 262 260 259 258 257 256 255 253 252 251 250 249 249 249 251 251 251 249 246 243 242 241 239 239 239 238 238 237 237 237 237 238 239 240 241 241 241 241 241 240 240 239 239 239 238 238 237 237 237 237 237 237 236 236
1 1 359 357 355 351 347 343 338 333 330 327 325 322 319 316 311 307 302 298 293 289 284 280 277 275 272 270 268 266 264 262 261 259 257 256 256 255 255 254 252 252 251 250 249 250 250 251 250 248 245 242 241 240 240 240 239 239 239 238 237 237 237 237 238 239 240 241 242 242 241 241 240 240 239 239 239 238 238 237 237 237 236 236 236
2 2 1 0 358 354 350 346 343 338 335 332 329 326 324 321 318 313 309 304 299 293 288 284 280 276 274 272 270 267 265 263 261 260 258 257 255 255 254 254 254 253 252 251 251 251 250 249 249 249 247 244 242 241 241 241 241 241 241 240 239 238 238 237 237 237 238 238 240 241 241 241 241 241 240 240 239 239 239 238 238 237 237 236 236
4 3 2 2 0 358 355 351 347 344 339 336 333 330 327 325 322 319 315 310 305 299 294 289 284 280 277 274 271 269 267 265 262 260 259 257 256 255 254 253 253 253 253 252 252 252 251 251 250 248 246 245 244 243 242 242 242 242 242 242 241 240 239 238 238 237 237 237 237 238 239 240 240 241 241 241 241 240 240 240 239 239 238 238 237
6 4 3 2 2 1 359 355 352 348 344 340 337 334 331 328 326 323 320 316 311 306 301 295 290 285 281 277 274 271 269 267 265 262 260 258 256 255 254 253 252 252 252 253 252 251 251 251 251 249 247 246 245 244 243 243 242 242 242 242 242 242 241 240 239 238 238 237 237 238 238 238 239 240 241 241 241 241 241 241 241 240 240 240 239
7 6 5 4 3 3 1 359 356 352 349 345 342 339 336 333 331 328 325 321 317 311 306 301 296 291 285 281 277 274 272 269 267 265 263 261 258 255 254 254 253 252 251 251 252 252 251 250 250 250 249 247 245 244 243 242 241 241 241 241 241 241 241 240 240 239 239 238 238 238 238 238 239 239 240 241 241 241 241 241 241 241 241 241 241
8 7 7 6 5 4 3 2 359 356 353 349 347 344 341 338 336 333 329 326 322 318 312 307 302 297 291 286 282 278 275 272 270 268 266 264 262 259 256 255 254 253 252 251 250 250 250 250 249 249 248 247 246 245 244 243 242 241 240 240 240 240 240 241 241 241 240 240 239 239 238 239 239 239 239 240 241 241 241 241 241 241 241 241 241
9 9 8 7 6 6 5 4 2 359 356 353 350 349 347 344 341 338 334 331 327 323 319 314 310 305 299 293 288 283 279 276 272 270 268 266 264 262 260 258 255 254 253 252 251 250 248 248 247 246 246 246 246 245 245 244 243 242 241 241 240 240 240 241 241 242 242 242 241 240 240 239 239 239 239 239 240 241 241 241 242 242 242 242 242
10 10 9 8 8 7 6 6 4 2 359 356 354 351 350 348 346 343 339 336 332 329 325 321 317 312 307 301 294 288 283 279 276 273 270 268 266 265 262 260 258 256 253 252 250 249 248 246 245 244 243 243 244 244 244 244 244 244 243 242 242 242 242 242 242 242 242 242 242 241 241 240 239 239 239 239 239 240 240 241 241 241 242 242 242
11 10 9 9 9 8 8 7 6 4 2 359 357 354 352 351 350 348 344 341 338 335 332 328 323 318 313 309 303 297 290 284 280 276 273 270 268 266 264 262 260 258 256 253 251 249 248 246 245 243 242 241 241 241 241 242 242 242 242 242 242 242 241 241 241 241 241 241 241 241 241 240 240 239 239 239 239 239 239 240 240 240 241 241 242
11 10 10 10 9 9 8 8 7 6 4 2 359 357 355 353 352 351 349 346 343 339 336 333 330 326 321 316 311 306 299 292 285 280 277 273 269 266 265 263 261 259 257 255 252 250 249 247 246 244 243 241 240 239 239 240 240 241 241 242 242 242 241 241 241 241 241 241 241 241 241 241 240 240 240 240 239 239 239 239 239 240 240 241 241
12 11 11 11 10 9 8 8 7 7 6 4 2 360 357 356 355 354 353 351 348 344 341 337 334 332 328 325 320 315 309 302 295 288 282 277 272 268 265 263 262 260 257 254 252 251 250 249 248 247 246 245 244 242 241 240 240 241 241 241 241 241 241 241 241 242 242 242 242 242 242 242 242 242 242 242 241 241 241 241 240 240 240 240 240
14 13 12 11 11 10 9 8 7 7 7 6 5 3 1 359 358 357 357 355 352 349 346 343 339 336 333 329 326 323 317 311 304 297 291 284 278 272 268 265 263 261 259 257 254 252 250 249 249 248 248 248 248 246 244 243 241 240 240 240 239 240 240 240 241 241 242 242 243 243 243 243 244 244 244 244 244 243 243 243 242 242 241 241 240
14 14 13 12 11 11 10 8 8 7 7 7 7 6 4 3 1 1 0 360 357 354 351 348 346 343 340 335 331 327 323 318 313 306 300 294 287 280 273 268 265 263 262 260 259 257 255 253 252 250 249 249 248 246 245 244 242 241 240 240 240 240 240 240 241 241 241 242 242 243 243 243 244 244 245 245 245 244 244 244 244 243 243 242 241
15 15 14 13 12 11 11 10 9 8 7 7 7 7 6 5 4 4 4 4 2 359 356 353 350 349 347 344 340 335 329 324 319 313 307 301 296 289 282 274 270 267 265 263 262 262 261 259 257 255 251 248 246 244 243 243 242 242 242 241 241 241 241 241 242 242 242 243 243 243 244 244 244 244 245 245 245 244 244 244 244 244 243 243 242
14 15 15 14 13 12 11 11 10 9 8 7 7 7 7 6 6 6 6 6 5 3 1 357 354 352 350 348 345 342 338 332 325 319 314 308 302 297 292 285 277 272 269 268 267 265 263 262 260 257 252 249 246 245 244 244 243 244 244 243 243 243 243 243 243 243 243 244 244 244 244 244 244 244 244 244 244 244 244 244 244 244 244 243 243
14 15 15 15 15 13 12 11 10 10 9 8 8 8 7 7 7 7 7 7 7 6 5 2 359 356 353 351 349 346 343 339 334 328 321 315 309 304 299 294 288 280 274 271 269 267 264 261 259 256 253 250 248 246 246 245 244 244 244 244 244 243 243 244 244 245 245 245 245 245 244 244 243 243 243 243 242 242 242 243 243 243 244 244 243
14 14 15 15 16 15 13 12 11 10 10 9 9 8 8 7 7 7 7 7 7 7 7 6 4 1 358 355 352 350 347 345 341 337 331 324 318 312 306 301 296 291 284 276 271 267 263 260 258 256 253 250 248 247 246 245 244 243 242 242 242 243 243 244 244 245 245 245 245 245 244 244 243 243 242 242 242 241 241 241 241 242 242 243 243
14 14 14 15 15 15 14 13 11 11 11 10 9 9 8 8 8 8 7 7 7 7 7 7 6 5 2 359 356 353 351 349 347 344 340 334 328 322 316 310 304 299 294 288 280 273 267 262 258 255 253 250 248 247 245 243 241 239 239 239 239 240 241 242 242 243 243 244 244 244 244 243 243 243 242 242 241 241 240 240 240 240 240 240 241
14 14 14 14 15 15 15 14 12 11 11 11 10 10 9 9 8 8 8 7 7 7 6 6 6 5 4 2 359 356 353 351 349 347 344 340 336 330 324 318 312 307 301 296 290 284 277 270 265 260 256 253 251 249 246 244 241 239 238 238 239 239 240 240 241 241 242 243 243 243 243 243 243 243 242 242 241 241 240 240 240 239 239 239 239
13 14 14 14 14 15 15 15 14 12 11 11 11 10 10 9 9 8 8 8 8 7 6 6 5 5 5 4 2 359 356 353 350 348 345 343 339 335 330 324 317 311 306 301 296 291 286 281 275 270 265 262 258 256 253 251 248 246 245 244 244 244 244 243 243 244 244 244 244 244 244 244 243 243 242 242 242 241 241 240 240 239 239 238 238
13 13 14 14 14 14 15 15 15 13 12 11 11 11 10 10 9 9 9 9 8 8 7 6 5 4 4 4 3 1 359 356 353 350 347 344 341 337 334 329 323 316 309 303 297 293 288 284 281 277 273 270 267 264 262 259 257 255 253 251 250 250 249 248 247 247 247 247 247 247 247 246 245 244 243 242 241 241 241 241 240 239 239 238 238
12 13 13 14 14 14 14 14 15 15 13 12 11 11 10 10 9 9 9 8 8 9 8 7 6 5 4 3 3 2 1 359 356 353 350 346 342 339 335 331 327 321 315 308 302 296 290 284 280 276 273 271 269 267 266 264 262 260 257 255 253 252 251 250 249 248 248 248 248 249 248 248 247 246 245 244 242 241 240 240 239 239 238 238 238
12 12 13 13 14 14 14 14 14 14 14 13 11 11 10 10 9 9 8 8 8 8 8 8 7 6 5 4 3 2 1 359 358 356 353 349 345 341 336 332 328 324 319 314 308 302 297 291 285 279 274 269 267 265 264 263 262 261 260 258 257 256 255 254 253 251 249 249 249 249 249 249 248 247 246 245 244 242 241 240 239 238 238 237 237
12 12 12 13 14 14 14 14 13 13 14 13 12 11 10 10 10 9 8 7 7 7 8 8 8 7 6 5 3 2 1 359 358 356 354 351 348 344 340 335 330 325 321 317 312 307 302 297 291 286 281 275 271 267 264 263 261 260 259 258 258 257 256 256 256 255 252 251 251 250 250 250 249 248 246 245 244 243 243 241 240 239 238 237 236
11 12 12 12 13 14 14 14 13 13 13 13 13 12 11 10 10 9 9 7 6 6 6 7 8 8 8 6 4 3 2 360 358 356 354 352 350 347 344 340 334 328 322 318 314 310 306 301 296 291 286 282 277 274 270 267 265 263 261 259 259 258 258 257 256 255 254 252 251 252 252 251 250 249 247 246 244 243 243 243 242 241 239 237 236
10 11 11 12 12 13 13 13 13 13 12 12 12 12 11 10 10 10 9 8 7 5 5 5 6 7 8 7 6 4 2 1 359 357 355 353 350 348 345 342 339 334 328 322 316 312 308 305 300 296 292 287 283 279 276 273 271 268 266 263 261 260 260 259 258 256 255 252 251 251 252 252 252 251 249 247 245 244 244 243 243 242 241 239 238
8 9 10 11 12 12 13 13 13 13 12 12 12 11 11 10 10 10 9 8 8 6 5 4 4 4 5 6 7 5 3 2 360 358 356 353 351 349 347 344 341 338 335 330 323 317 311 306 302 299 295 292 289 285 281 278 275 273 270 268 265 263 262 261 260 258 257 255 252 251 251 251 251 251 250 248 246 245 244 244 243 242 242 241 240
7 8 9 10 11 12 12 13 13 13 12 12 11 11 10 9 9 9 9 9 8 7 6 4 3 2 3 3 4 5 5 3 1 359 357 354 352 350 348 345 342 339 337 334 330 325 319 312 306 300 296 293 290 288 284 281 278 276 273 270 268 266 264 262 261 259 257 256 254 253 251 250 249 249 248 248 247 245 244 244 244 243 242 241 241
6 7 8 9 10 11 12 12 12 13 12 12 11 10 10 9 8 7 7 8 8 7 6 5 4 3 2 1 1 2 3 3 3 1 359 357 354 351 348 346 343 340 337 335 333 330 326 321 315 307 301 295 290 287 283 281 279 277 275 272 270 268 267 265 263 261 259 257 256 254 253 251 250 249 248 247 246 245 245 245 245 245 244 243 242
5 6 6 8 9 10 11 11 11 12 12 12 11 10 10 9 8 7 6 6 7 7 6 6 5 4 3 2 1 360 0 1 2 1 360 359 357 354 350 347 345 343 340 337 334 332 329 325 321 316 310 303 296 290 285 281 279 277 275 274 272 269 268 267 265 263 261 258 256 255 254 252 251 250 249 248 247 246 245 245 245 245 245 244 243
4 4 5 6 7 8 9 10 10 11 11 12 11 10 9 9 8 7 6 5 5 6 6 5 5 4 3 3 2 0 359 359 360 360 359 358 356 355 353 351 348 345 342 340 337 333 330 327 324 320 315 310 304 298 292 287 282 279 276 274 273 272 270 268 267 265 263 260 257 255 253 252 251 250 249 249 248 247 246 245 244 244 244 245 244
2 3 4 5 6 7 8 9 9 10 10 11 11 10 9 8 8 7 6 5 5 5 5 4 4 3 3 3 2 1 0 359 358 358 359 359 357 355 353 351 350 348 344 341 338 335 332 328 325 322 319 315 309 304 300 296 290 285 280 276 274 272 271 269 267 266 265 263 260 258 255 253 251 250 250 249 249 248 247 246 245 244 244 244 244
1 2 3 4 5 6 7 7 8 9 9 10 10 10 9 8 7 7 6 5 5 4 4 4 3 2 2 2 2 1 1 360 358 356 356 356 358 358 355 351 349 348 347 344 341 338 334 331 327 324 321 318 314 309 305 301 297 294 289 285 280 276 273 271 269 266 265 264 262 261 259 256 253 250 249 249 249 249 249 248 247 245 245 244 243
359 1 2 3 4 5 6 6 7 8 8 9 9 9 9 8 7 6 6 5 4 4 4 4 3 2 1 0 0 0 0 0 360 358 356 354 353 354 356 356 352 348 346 345 344 342 339 335 331 327 324 321 318 313 309 306 302 298 295 292 287 283 278 274 270 267 264 263 262 261 260 259 256 253 250 248 247 248 248 248 248 247 246 245 244
358 359 0 1 2 3 4 5 6 6 7 8 8 8 8 7 6 6 5 5 4 3 3 3 3 3 2 360 359 359 359 359 359 358 358 356 353 351 351 353 354 352 348 345 344 344 342 339 334 331 328 325 321 316 312 309 306 302 298 295 292 289 284 278 273 269 265 262 260 259 258 258 257 255 252 249 247 246 246 247 247 247 247 246 245
Height
10232 10227 10222 10217 10213 10209 10206 10202 10199 10196 10194 10191 10189 10187 10185 10184 10183 10182 10182 10182 10182 10183 10183 10183 10183 10184 10184 10185 10187 10190 10192 10195 10198 10202 10206 10209 10213 10217 10221 10225 10230 10234 10239 10244 10249 10254 10259 10265 10271 10276 10281 10287 10293 10298 10304 10310 10316 10321 10327 10333 10339 10346 10352 10359 10365 10372 10380 10386 10392 10398 10405 10411 10417 10424 10430 10436 10442 10446 10452 10460 10468 10474 10481 10489 10495
10219 10215 10211 10206 10202 10197 10193 10190 10187 10184 10181 10178 10175 10173 10171 10169 10168 10168 10168 10167 10167 10167 10167 10168 10168 10169 10169 10169 10171 10173 10176 10178 10180 10184 10187 10191 10195 10199 10203 10207 10212 10216 10221 10226 10231 10236 10241 10247 10252 10258 10263 10269 10275 10281 10286 10292 10298 10304 10310 10316 10322 10328 10335 10341 10348 10356 10363 10370 10376 10382 10388 10394 10401 10407 10414 10420 10425 10430 10435 10441 10449 10457 10464 10471 10476
10205 10201 10198 10194 10190 10186 10182 10178 10175 10172 10168 10165 10163 10160 10158 10156 10155 10154 10154 10154 10153 10153 10152 10153 10154 10155 10155 10156 10157 10159 10160 10162 10165 10168 10171 10174 10178 10182 10186 10190 10195 10199 10203 10208 10213 10218 10224 10229 10234 10239 10245 10251 10256 10263 10269 10275 10280 10286 10292 10299 10305 10311 10317 10323 10330 10339 10346 10353 10361 10367 10372 10376 10383 10392 10399 10404 10408 10413 10420 10426 10431 10438 10446 10453 10457
10196 10190 10185 10181 10177 10174 10170 10167 10163 10160 10157 10153 10151 10149 10146 10144 10142 10142 10142 10141 10140 10139 10139 10139 10140 10140 10141 10142 10143 10144 10146 10147 10150 10153 10155 10158 10162 10166 10170 10174 10179 10183 10186 10190 10195 10200 10205 10211 10216 10221 10227 10232 10237 10244 10250 10257 10263 10269 10275 10281 10287 10294 10300 10306 10313 10320 10328 10336 10344 10351 10357 10360 10368 10377 10382 10387 10393 10398 10405 10411 10415 10421 10428 10435 10442
10189 10182 10176 10171 10166 10162 10158 10155 10152 10149 10146 10142 10139 10137 10134 10133 10131 10129 10129 10128 10127 10126 10125 10125 10125 10125 10125 10126 10127 10129 10131 10132 10134 10137 10139 10142 10146 10150 10154 10158 10162 10167 10170 10173 10177 10182 10187 10192 10197 10203 10208 10214 10219 10225 10231 10238 10245 10251 10258 10264 10270 10276 10283 10289 10296 10303 10309 10317 10325 10334 10340 10344 10353 10361 10365 10371 10378 10383 10390 10397 10401 10407 10412 10417 10426
10182 10175 10169 10163 10157 10152 10147 10142 10139 10136 10133 10131 10128 10125 10123 10121 10119 10117 10116 10115 10113 10112 10111 10110 10111 10111 10110 10111 10112 10114 10115 10117 10119 10121 10124 10126 10129 10132 10136 10140 10144 10149 10153 10156 10159 10163 10168 10173 10178 10184 10189 10195 10200 10206 10213 10220 10226 10233 10240 10247 10252 10259 10266 10272 10279 10286 10291 10298 10306 10315 10322 10328 10338 10345 10348 10355 10363 10368 10374 10381 10387 10392 10395 10400 10409
10173 10166 10161 10155 10149 10143 10137 10132 10128 10125 10121 10118 10116 10113 10111 10109 10107 10105 10103 10102 10101 10099 10098 10097 10098 10098 10098 10098 10099 10101 10103 10105 10106 10108 10109 10110 10112 10115 10118 10121 10125 10129 10133 10137 10140 10144 10147 10153 10158 10164 10170 10176 10181 10188 10195 10201 10208 10215 10222 10229 10235 10242 10250 10257 10263 10269 10274 10281 10288 10296 10303 10312 10321 10326 10331 10339 10348 10353 10357 10364 10371 10376 10380 10386 10394
10166 10158 10151 10146 10140 10135 10130 10124 10119 10116 10111 10107 10104 10102 10100 10098 10096 10094 10092 10091 10090 10088 10087 10086 10086 10087 10087 10086 10086 10088 10090 10094 10096 10097 10098 10098 10099 10101 10102 10105 10108 10111 10115 10118 10120 10124 10128 10133 10139 10145 10152 10158 10163 10170 10177 10184 10191 10198 10204 10210 10217 10224 10232 10240 10247 10253 10258 10265 10271 10277 10285 10294 10301 10307 10314 10322 10330 10337 10342 10349 10353 10357 10363 10371 10378
10160 10152 10144 10137 10132 10127 10122 10117 10112 10107 10103 10099 10095 10091 10089 10087 10085 10083 10081 10080 10078 10077 10075 10074 10074 10074 10074 10073 10073 10074 10076 10079 10081 10083 10085 10086 10088 10090 10091 10092 10095 10097 10100 10103 10105 10108 10113 10118 10123 10129 10136 10142 10148 10154 10161 10169 10175 10180 10186 10192 10199 10207 10215 10222 10230 10236 10242 10248 10253 10260 10268 10275 10282 10289 10297 10304 10312 10321 10329 10333 10335 10338 10344 10353 10361
10155 10146 10138 10131 10125 10120 10115 10110 10105 10100 10096 10091 10086 10083 10080 10077 10075 10073 10071 10070 10068 10066 10064 10063 10062 10061 10061 10060 10060 10061 10062 10064 10066 10067 10069 10071 10074 10077 10078 10079 10081 10083 10085 10089 10091 10094 10099 10105 10110 10116 10122 10128 10134 10140 10148 10155 10159 10164 10170 10175 10182 10189 10197 10204 10211 10218 10224 10230 10236 10242 10249 10256 10263 10270 10278 10286 10293 10302 10312 10317 10318 10322 10328 10335 10341
10151 10143 10134 10126 10120 10114 10109 10104 10099 10094 10090 10085 10080 10076 10072 10069 10066 10063 10061 10060 10058 10056 10054 10052 10051 10050 10049 10049 10048 10048 10049 10051 10053 10055 10056 10057 10059 10061 10062 10064 10066 10067 10069 10073 10075 10079 10085 10092 10096 10102 10109 10115 10121 10129 10136 10140 10144 10149 10154 10159 10165 10171 10178 10185 10193 10199 10205 10212 10217 10222 10229 10237 10244 10251 10259 10267 10275 10283 10292 10300 10303 10305 10312 10319 10322
10147 10139 10131 10122 10115 10108 10102 10097 10092 10088 10083 10079 10074 10070 10066 10062 10059 10055 10052 10050 10048 10046 10044 10043 10041 10040 10039 10038 10037 10037 10038 10039 10041 10043 10044 10045 10046 10047 10048 10049 10051 10052 10055 10058 10061 10064 10070 10076 10080 10087 10095 10101 10109 10116 10122 10126 10129 10134 10138 10143 10148 10154 10159 10166 10173 10180 10186 10192 10198 10202 10209 10216 10224 10232 10240 10247 10255 10264 10272 10280 10286 10288 10294 10302 10306
10141 10132 10124 10117 10109 10102 10095 10089 10084 10079 10075 10071 10066 10062 10059 10055 10052 10048 10045 10042 10039 10037 10035 10033 10032 10031 10029 10028 10027 10026 10026 10027 10029 10030 10031 10032 10034 10035 10036 10038 10039 10041 10042 10045 10048 10051 10056 10062 10066 10073 10081 10088 10095 10102 10107 10111 10114 10118 10123 10128 10133 10137 10142 10148 10155 10162 10168 10173 10180 10185 10190 10197 10205 10212 10219 10226 10234 10243 10251 10259 10267 10272 10276 10285 10289
10135 10126 10119 10111 10104 10096 10090 10083 10077 10071 10067 10062 10058 10054 10049 10046 10043 10040 10037 10034 10031 10028 10026 10024 10023 10021 10020 10019 10018 10017 10016 10016 10017 10018 10019 10020 10021 10023 10024 10026 10028 10029 10030 10033 10035 10037 10042 10048 10054 10062 10070 10077 10083 10087 10091 10094 10098 10102 10107 10112 10117 10121 10125 10131 10138 10145 10150 10156 10163 10167 10172 10180 10187 10192 10198 10206 10214 10222 10230 10238 10247 10252 10258 10267 10270
10131 10123 10115 10108 10101 10093 10086 10079 10072 10066 10061 10056 10051 10047 10043 10039 10035 10031 10028 10025 10022 10020 10017 10015 10014 10012 10011 10010 10009 10008 10007 10007 10007 10007 10008 10009 10010 10011 10013 10014 10016 10017 10019 10021 10023 10025 10030 10036 10043 10051 10059 10065 10070 10073 10075 10078 10081 10085 10091 10096 10100 10105 10111 10117 10123 10128 10133 10140 10146 10150 10156 10163 10170 10175 10179 10186 10194 10201 10209 10217 10225 10231 10239 10248 10253
10129 10121 10113 10106 10099 10092 10084 10077 10069 10062 10056 10051 10046 10041 10037 10033 10029 10025 10021 10018 10015 10012 10010 10007 10005 10004 10003 10002 10001 10000 9999 9998 9998 9998 9999 9999 9999 10000 10001 10003 10005 10007 10008 10010 10011 10013 10018 10025 10032 10039 10046 10052 10055 10058 10060 10062 10066 10071 10076 10081 10086 10092 10098 10104 10109 10113 10119 10124 10129 10134 10141 10148 10155 10159 10162 10167 10174 10181 10189 10196 10202 10211 10219 10227 10234
10127 10119 10111 10102 10094 10087 10080 10074 10067 10059 10052 10046 10041 10035 10031 10027 10023 10019 10015 10012 10009 10006 10003 10000 9998 9996 9995 9994 9992 9991 9990 9990 9989 9989 9990 9990 9990 9990 9991 9992 9995 9997 9998 10000 10000 10002 10007 10013 10018 10024 10033 10038 10041 10045 10047 10050 10054 10059 10064 10069 10075 10081 10086 10091 10095 10100 10105 10108 10113 10118 10126 10133 10138 10141 10144 10150 10156 10161 10169 10176 10182 10190 10198 10205 10213
10124 10116 10108 10100 10092 10085 10077 10070 10063 10056 10049 10042 10036 10031 10025 10021 10017 10013 10009 10006 10002 9999 9996 9994 9991 9989 9987 9986 9984 9983 9982 9982 9981 9981 9981 9982 9982 9982 9982 9983 9984 9987 9989 9990 9992 9994 9997 10002 10006 10011 10019 10024 10028 10032 10035 10039 10043 10048 10053 10058 10064 10069 10073 10078 10082 10086 10090 10093 10097 10103 10109 10116 10121 10124 10127 10133 10139 10144 10150 10158 10165 10171 10177 10183 10193
10122 10113 10104 10097 10090 10083 10075 10067 10060 10053 10046 10039 10033 10027 10021 10016 10012 10008 10004 10000 9996 9993 9990 9987 9985 9982 9980 9978 9977 9975 9974 9974 9973 9973 9973 9973 9974 9974 9974 9975 9976 9977 9979 9981 9983 9986 9988 9992 9995 10000 10006 10011 10016 10021 10025 10029 10033 10038 10042 10046 10051 10055 10059 10064 10067 10070 10074 10077 10082 10087 10092 10099 10104 10106 10110 10116 10123 10129 10135 10142 10148 10154 10158 10164 10174
10122 10113 10104 10095 10087 10079 10073 10066 10059 10052 10045 10037 10031 10025 10018 10013 10008 10003 9999 9995 9991 9988 9984 9981 9978 9976 9973 9971 9970 9968 9966 9965 9965 9965 9965 9966 9966 9967 9966 9967 9968 9969 9971 9972 9974 9977 9980 9983 9986 9989 9995 10000 10005 10009 10013 10018 10022 10027 10030 10033 10036 10040 10044 10048 10051 10055 10059 10063 10068 10073 10078 10084 10088 10090 10095 10101 10106 10113 10119 10125 10131 10137 10141 10146 10157
10124 10115 10106 10096 10086 10077 10070 10063 10057 10050 10043 10036 10029 10023 10016 10010 10004 9999 9995 9991 9987 9983 9980 9976 9973 9970 9968 9966 9964 9962 9960 9959 9957 9957 9957 9958 9959 9960 9959 9959 9960 9962 9963 9965 9966 9969 9972 9975 9978 9981 9985 9989 9992 9996 10000 10005 10009 10013 10016 10019 10022 10025 10028 10032 10036 10040 10045 10050 10055 10061 10065 10070 10074 10078 10083 10087 10090 10096 10102 10108 10114 10120 10125 10131 10140
10125 10115 10105 10095 10085 10076 10068 10060 10053 10046 10040 10033 10027 10020 10014 10007 10001 9996 9991 9986 9983 9979 9975 9972 9969 9966 9963 9961 9958 9957 9955 9953 9952 9950 9950 9950 9951 9952 9953 9953 9954 9955 9956 9958 9959 9961 9964 9967 9970 9972 9975 9978 9981 9984 9987 9992 9996 9999 10003 10006 10009 10011 10014 10018 10023 10028 10033 10037 10043 10048 10053 10056 10061 10066 10071 10073 10076 10081 10086 10092 10098 10103 10109 10115 10122
10123 10112 10102 10093 10084 10075 10065 10057 10050 10043 10036 10030 10023 10017 10012 10005 9998 9993 9987 9983 9978 9975 9971 9967 9964 9961 9958 9956 9954 9952 9950 9948 9947 9945 9944 9944 9944 9944 9945 9946 9947 9949 9950 9951 9952 9954 9956 9959 9961 9963 9965 9968 9971 9973 9976 9980 9983 9987 9990 9993 9996 9999 10003 10008 10012 10017 10020 10024 10029 10034 10038 10041 10047 10052 10057 10060 10063 10067 10071 10077 10083 10089 10094 10100 10105
10119 10109 10101 10092 10083 10073 10063 10054 10047 10040 10034 10027 10020 10014 10008 10002 9996 9990 9984 9979 9975 9971 9967 9963 9960 9957 9954 9951 9949 9947 9945 9943 9942 9940 9939 9939 9938 9938 9938 9939 9940 9942 9943 9945 9946 9947 9949 9950 9953 9955 9957 9960 9962 9964 9967 9970 9973 9976 9979 9983 9986 9990 9994 9998 10001 10004 10007 10010 10014 10018 10021 10025 10032 10038 10042 10046 10049 10053 10058 10063 10069 10075 10080 10086 10090
10118 10109 10100 10090 10080 10071 10062 10054 10046 10038 10031 10025 10018 10012 10005 9999 9993 9987 9982 9976 9971 9967 9963 9960 9957 9953 9950 9948 9945 9943 9941 9939 9937 9935 9934 9934 9933 9932 9932 9933 9933 9934 9936 9938 9939 9940 9942 9943 9945 9947 9949 9951 9954 9956 9958 9960 9962 9965 9968 9972 9976 9979 9982 9985 9988 9990 9993 9996 9999 10002 10005 10010 10017 10023 10027 10030 10034 10039 10044 10049 10056 10061 10065 10071 10076
10121 10110 10099 10088 10079 10070 10062 10055 10047 10039 10031 10024 10018 10011 10004 9997 9991 9986 9980 9974 9969 9964 9960 9956 9953 9950 9947 9944 9942 9939 9937 9935 9933 9931 9930 9929 9929 9928 9927 9927 9928 9928 9929 9931 9932 9933 9934 9936 9938 9939 9941 9943 9945 9947 9949 9951 9954 9956 9960 9963 9966 9968 9970 9973 9976 9978 9980 9983 9986 9989 9993 9997 10004 10008 10011 10015 10020 10025 10030 10036 10043 10048 10052 10057 10062
10123 10110 10098 10087 10078 10070 10062 10055 10048 10040 10033 10025 10018 10011 10004 9997 9990 9984 9979 9973 9968 9963 9958 9953 9949 9946 9943 9940 9938 9936 9934 9931 9929 9927 9925 9924 9924 9923 9923 9922 9922 9922 9923 9924 9925 9926 9927 9929 9931 9932 9934 9936 9939 9941 9943 9945 9948 9951 9954 9955 9956 9958 9961 9963 9966 9968 9970 9972 9975 9978 9982 9987 9992 9996 9999 10003 10008 10013 10018 10025 10030 10035 10039 10043 10048
10126 10112 10100 10089 10080 10071 10063 10055 10048 10040 10034 10026 10019 10011 10004 9997 9990 9984 9978 9972 9967 9962 9957 9952 9947 9944 9940 9937 9934 9932 9930 9928 9926 9923 9921 9920 9919 9919 9918 9918 9917 9917 9917 9917 9918 9919 9921 9922 9924 9926 9929 9931 9933 9935 9937 9939 9941 9943 9944 9945 9946 9949 9951 9954 9956 9958 9960 9962 9965 9968 9973 9977 9980 9984 9988 9992 9997 10002 10007 10012 10016 10021 10025 10030 10035
10131 10118 10106 10095 10085 10075 10066 10057 10048 10040 10033 10026 10019 10012 10004 9998 9991 9984 9977 9971 9966 9961 9956 9951 9946 9942 9939 9935 9932 9929 9927 9925 9923 9920 9918 9916 9915 9914 9914 9914 9913 9912 9912 9912 9912 9913 9915 9916 9918 9921 9923 9925 9927 9928 9929 9930 9932 9933 9933 9935 9938 9941 9943 9945 9947 9949 9950 9952 9955 9959 9963 9967 9970 9974 9977 9980 9985 9989 9994 9998 10002 10006 10011 10016 10021
10136 10123 10110 10099 10089 10078 10069 10059 10050 10042 10033 10025 10017 10010 10003 9997 9990 9983 9977 9971 9965 9960 9955 9950 9945 9941 9937 9933 9930 9927 9924 9922 9919 9917 9915 9913 9911 9910 9910 9910 9909 9909 9908 9907 9908 9909 9910 9911 9913 9915 9917 9919 9919 9920 9921 9922 9922 9924 9926 9928 9931 9934 9935 9937 9938 9939 9942 9944 9948 9951 9954 9958 9962 9964 9966 9969 9973 9977 9981 9984 9987 9991 9996 10001 10007
10140 10127 10114 10103 10091 10080 10070 10060 10052 10043 10035 10026 10018 10009 10002 9995 9988 9982 9976 9970 9965 9960 9954 9949 9944 9939 9935 9931 9928 9925 9922 9919 9917 9914 9912 9910 9908 9906 9905 9905 9906 9905 9905 9904 9904 9904 9905 9906 9907 9909 9911 9912 9912 9913 9914 9915 9916 9917 9919 9922 9924 9926 9926 9927 9929 9931 9934 9937 9940 9943 9946 9949 9952 9953 9955 9958 9961 9965 9969 9972 9974 9978 9982 9987 9993
10143 10131 10119 10106 10094 10083 10072 10062 10053 10044 10036 10027 10019 10011 10003 9995 9988 9981 9975 9970 9964 9959 9954 9949 9944 9939 9934 9930 9927 9923 9920 9917 9914 9912 9909 9907 9905 9903 9902 9901 9901 9901 9901 9901 9900 9900 9901 9901 9902 9903 9904 9905 9906 9906 9907 9909 9910 9912 9914 9915 9916 9917 9917 9919 9922 9924 9926 9929 9931 9934 9937 9939 9941 9942 9944 9947 9950 9953 9957 9960 9963 9966 9970 9975 9980
10147 10134 10122 10110 10098 10087 10076 10066 10056 10047 10038 10029 10020 10012 10004 9996 9988 9981 9975 9969 9963 9958 9953 9948 9944 9939 9934 9930 9926 9922 9919 9916 9913 9910 9908 9905 9903 9901 9899 9898 9897 9897 9897 9897 9897 9896 9896 9896 9897 9897 9898 9899 9900 9900 9901 9903 9904 9906 9907 9908 9908 9909 9910 9912 9915 9916 9917 9919 9922 9924 9926 9928 9929 9931 9934 9936 9939 9942 9946 9949 9952 9955 9960 9964 9967
10152 10138 10125 10113 10101 10089 10079 10069 10059 10050 10040 10031 10023 10014 10005 9997 9989 9982 9975 9969 9963 9957 9952 9947 9943 9939 9934 9930 9926 9921 9918 9914 9911 9909 9906 9904 9901 9899 9897 9895 9894 9893 9892 9892 9892 9892 9892 9892 9892 9892 9893 9893 9894 9894 9895 9897 9898 9899 9900 9900 9901 9902 9903 9905 9907 9908 9909 9911 9913 9914 9916 9917 9919 9921 9924 9926 9929 9932 9935 9938 9941 9945 9949 9952 9955
10159 10144 10130 10117 10104 10092 10081 10071 10061 10052 10043 10034 10025 10016 10008 10000 9992 9984 9977 9970 9963 9958 9952 9947 9943 9938 9934 9930 9926 9922 9917 9914 9910 9907 9905 9902 9900 9897 9895 9893 9891 9890 9889 9888 9888 9887 9887 9887 9888 9888 9888 9888 9889 9889 9890 9891 9892 9893 9893 9893 9894 9895 9897 9898 9899 9901 9902 9903 9905 9906 9907 9909 9911 9913 9914 9917 9920 9922 9925 9928 9931 9934 9938 9941 9944
10164 10151 10137 10123 10110 10098 10087 10076 10065 10055 10046 10036 10028 10019 10011 10003 9995 9987 9980 9973 9966 9960 9954 9948 9944 9939 9935 9930 9926 9922 9918 9914 9910 9906 9903 9900 9898 9896 9893 9891 9889 9887 9886 9885 9884 9883 9883 9883 9883 9883 9883 9883 9883 9884 9884 9885 9886 9887 9887 9888 9889 9889 9891 9892 9893 9894 9895 9896 9897 9898 9899 9901 9903 9904 9906 9908 9911 9914 9917 9919 9921 9924 9927 9931 9934
10165 10153 10140 10127 10114 10102 10090 10080 10069 10059 10049 10039 10030 10021 10013 10005 9998 9990 9983 9976 9969 9962 9956 9950 9945 9940 9935 9931 9926 9922 9918 9914 9911 9906 9903 9900 9896 9894 9892 9890 9888 9886 9884 9883 9881 9880 9879 9879 9878 9878 9878 9878 9878 9878 9878 9879 9880 9880 9881 9882 9882 9883 9884 9885 9886 9887 9887 9888 9889 9890 9891 9893 9894 9896 9898 9900 9903 9906 9908 9910 9912 9915 9917 9920 9923
10168 10155 10142 10129 10117 10105 10093 10083 10073 10063 10053 10043 10033 10023 10015 10007 10000 9992 9985 9978 9972 9965 9959 9953 9947 9941 9935 9930 9926 9922 9917 9914 9910 9907 9903 9900 9896 9893 9890 9888 9886 9884 9882 9881 9879 9878 9876 9875 9875 9874 9874 9874 9873 9873 9873 9873 9873 9874 9875 9875 9876 9876 9877 9877 9879 9880 9880 9881 9882 9882 9883 9884 9886 9887 9890 9893 9895 9897 9899 9900 9902 9905 9908 9910 9913
10172 10159 10146 10133 10120 10108 10096 10085 10074 10064 10055 10045 10035 10026 10018 10009 10002 9994 9987 9980 9974 9968 9961 9955 9948 9942 9936 9931 9926 9921 9917 9913 9909 9906 9903 9900 9896 9893 9890 9887 9884 9882 9881 9879 9877 9876 9874 9873 9872 9871 9870 9870 9869 9868 9868 9868 9868 9868 9869 9869 9870 9870 9871 9871 9872 9873 9874 9875 9875 9875 9875 9876 9878 9880 9882 9884 9886 9888 9889 9890 9893 9896 9898 9900 9903
10176 10163 10150 10137 10124 10111 10099 10087 10076 10065 10055 10047 10038 10029 10020 10012 10004 9996 9989 9982 9975 9969 9963 9956 9950 9943 9938 9932 9927 9922 9918 9913 9910 9906 9903 9900 9897 9893 9890 9887 9884 9881 9879 9877 9875 9874 9872 9871 9870 9868 9867 9866 9865 9865 9864 9863 9863 9863 9863 9863 9864 9864 9865 9865 9866 9867 9868 9868 9869 9869 9869 9869 9871 9873 9874 9876 9878 9880 9880 9881 9884 9887 9888 9891 9896
10179 10167 10154 10141 10128 10115 10103 10091 10080 10069 10058 10048 10039 10031 10023 10014 10005 9998 9990 9983 9976 9969 9963 9957 9951 9945 9939 9933 9928 9923 9918 9914 9910 9906 9902 9899 9896 9893 9890 9887 9884 9881 9878 9876 9873 9872 9870 9869 9867 9865 9864 9863 9862 9861 9860 9859 9859 9859 9858 9858 9858 9858 9858 9859 9859 9860 9861 9861 9862 9862 9863 9863 9864 9866 9867 9868 9870 9871 9872 9874 9877 9878 9879 9884 9890
10181 10170 10158 10145 10132 10119 10106 10095 10083 10072 10061 10050 10041 10032 10024 10016 10008 9999 9991 9984 9977 9969 9962 9956 9951 9945 9940 9934 9929 9924 9919 9915 9910 9906 9902 9898 9895 9892 9889 9886 9883 9881 9878 9875 9873 9870 9868 9866 9865 9863 9861 9860 9859 9858 9856 9855 9855 9854 9854 9853 9853 9853 9853 9853 9853 9854 9854 9855 9855 9856 9856 9857 9858 9859 9860 9861 9863 9864 9865 9867 9868 9869 9872 9878 9882
10184 10173 10161 10149 10137 10124 10111 10099 10087 10075 10064 10053 10043 10033 10025 10017 10009 10001 9993 9986 9978 9971 9963 9956 9950 9944 9940 9935 9930 9925 9920 9915 9910 9906 9902 9898 9894 9891 9887 9884 9882 9879 9876 9874 9871 9869 9867 9865 9863 9861 9859 9857 9856 9855 9854 9852 9851 9851 9850 9849 9849 9848 9848 9847 9847 9848 9848 9848 9848 9849 9850 9850 9851 9853 9854 9855 9856 9858 9858 9859 9860 9863 9867 9871 9874
10187 10176 10165 10153 10142 10130 10117 10105 10093 10080 10067 10056 10046 10036 10026 10017 10010 10003 9996 9988 9980 9973 9966 9959 9951 9944 9939 9934 9929 9925 9920 9916 9911 9906 9902 9898 9894 9891 9887 9883 9880 9877 9875 9872 9870 9867 9865 9863 9861 9859 9857 9856 9854 9853 9851 9850 9848 9847 9846 9846 9845 9844 9843 9843 9842 9842 9842 9842 9842 9843 9843 9844 9845 9846 9847 9848 9849 9851 9851 9852 9854 9857 9861 9864 9866
10188 10177 10167 10156 10145 10134 10123 10111 10099 10086 10074 10061 10050 10039 10029 10020 10011 10003 9997 9990 9983 9976 9969 9962 9955 9947 9940 9934 9928 9923 9919 9915 9911 9907 9903 9898 9894 9890 9886 9883 9880 9876 9873 9870 9868 9865 9863 9861 9859 9857 9855 9854 9852 9850 9849 9847 9846 9844 9843 9842 9841 9840 9840 9839 9838 9838 9838 9838 9838 9838 9838 9838 9839 9840 9840 9841 9842 9844 9845 9847 9849 9851 9854 9857 9858
10189 10178 10167 10156 10145 10134 10123 10112 10102 10091 10079 10067 10055 10044 10034 10024 10015 10006 9997 9990 9984 9978 9971 9965 9958 9951 9944 9937 9930 9923 9918 9914 9909 9905 9901 9898 9894 9890 9886 9882 9878 9875 9872 9869 9866 9863 9861 9859 9857 9855 9853 9851 9849 9848 9846 9845 9843 9842 9840 9839 9838 9837 9836 9835 9835 9834 9834 9833 9833 9833 9833 9833 9834 9834 9835 9836 9837 9838 9839 9841 9843 9846 9847 9849 9851
10192 10181 10169 10157 10145 10133 10123 10113 10103 10092 10081 10070 10059 10049 10038 10028 10019 10010 10000 9992 9984 9977 9972 9965 9959 9953 9946 9940 9933 9926 9919 9914 9909 9905 9900 9896 9892 9889 9886 9883 9879 9875 9871 9868 9865 9862 9859 9857 9855 9853 9851 9848 9846 9845 9843 9841 9840 9838 9837 9836 9834 9833 9832 9832 9831 9830 9830 9829 9829 9828 9828 9828 9829 9829 9830 9831 9831 9833 9834 9835 9838 9839 9841 9842 9844
10194 10183 10172 10160 10148 10136 10125 10114 10104 10094 10083 10072 10062 10052 10042 10031 10022 10013 10004 9995 9986 9977 9970 9964 9958 9953 9946 9940 9935 9928 9921 9915 9909 9905 9901 9897 9893 9888 9884 9881 9879 9876 9872 9868 9865 9862 9858 9855 9853 9851 9849 9847 9844 9842 9840 9838 9836 9835 9834 9832 9831 9830 9829 9828 9827 9826 9826 9826 9825 9825 9825 9825 9825 9825 9825 9826 9826 9827 9828 9830 9832 9833 9834 9835 9837
10196 10186 10174 10163 10152 10140 10128 10117 10106 10095 10085 10075 10064 10054 10044 10033 10024 10014 10006 9998 9989 9981 9972 9965 9958 9951 9945 9940 9934 9929 9923 9917 9910 9903 9898 9895 9892 9889 9885 9880 9876 9873 9871 9868 9864 9861 9858 9855 9852 9849 9847 9844 9842 9840 9838 9836 9834 9832 9830 9829 9828 9827 9825 9824 9824 9823 9822 9822 9821 9821 9821 9821 9821 9821 9822 9822 9822 9822 9823 9824 9826 9827 9828 9829 9831
10195 10186 10175 10164 10154 10143 10132 10121 10109 10097 10086 10076 10066 10056 10046 10036 10027 10017 10007 9999 9991 9983 9975 9967 9960 9952 9945 9939 9933 9928 9923 9917 9912 9906 9899 9892 9887 9885 9883 9881 9876 9872 9868 9866 9863 9860 9857 9853 9851 9848 9845 9842 9840 9838 9835 9833 9831 9829 9828 9826 9825 9824 9822 9821 9820 9820 9819 9818 9818 9817 9817 9817 9817 9818 9818 9818 9818 9818 9818 9819 9820 9821 9822 9823 9825
10194 10184 10174 10164 10154 10143 10133 10122 10110 10099 10090 10079 10069 10059 10049 10039 10029 10019 10010 10000 9992 9984 9976 9968 9961 9954 9947 9939 9933 9927 9922 9917 9911 9906 9901 9895 9888 9882 9877 9876 9875 9872 9867 9864 9860 9858 9855 9852 9849 9846 9844 9841 9838 9836 9833 9831 9829 9827 9825 9823 9822 9821 9819 9818 9817 9816 9816 9815 9814 9814 9813 9813 9813 9813 9813 9814 9814 9814 9814 9814 9815 9815 9816 9817 9819